This is the latest recevied weather packets stored in our database for station/object W4OTS. If no packets are shown the sender has not sent any weather packets the latest 10 day(s).
| Time | Temp. | Humidity | Pressure | Rain* | Wind** | Luminosity | Snow |
|---|---|---|---|---|---|---|---|
| 1777575312 | 23.33° C | 48% | 1011.5 hPa | 0 mm | - | 218 W/m² | - |
| 1777575008 | 23.89° C | 44% | 1011.6 hPa | 0 mm | - | 254 W/m² | - |
| 1777574704 | 23.33° C | 50% | 1011.8 hPa | 0 mm | - | 560 W/m² | - |
| 1777574402 | 22.78° C | 50% | 1011.9 hPa | 0 mm | - | 559 W/m² | - |
| 1777574097 | 22.22° C | 52% | 1011.6 hPa | 0 mm | - | 620 W/m² | - |
| 1777573792 | 23.33° C | 51% | 1012.2 hPa | 0 mm | - | 210 W/m² | - |
| 1777573488 | 23.89° C | 46% | 1012 hPa | 0 mm | - | 701 W/m² | - |
| 1777573184 | 23.89° C | 49% | 1011.9 hPa | 0 mm | - | 738 W/m² | - |
| 1777572881 | 23.89° C | 52% | 1011.9 hPa | 0 mm | - | 742 W/m² | - |
| 1777572577 | 23.33° C | 51% | 1011.8 hPa | 0 mm | - | 716 W/m² | - |
| 1777572272 | 23.33° C | 50% | 1012.1 hPa | 0 mm | - | 727 W/m² | - |
| 1777571968 | 22.78° C | 53% | 1012.2 hPa | 0 mm | - | 729 W/m² | - |
| 1777571662 | 22.78° C | 55% | 1012.2 hPa | 0 mm | - | 716 W/m² | - |
| 1777571361 | 22.78° C | 56% | 1012.6 hPa | 0 mm | - | 734 W/m² | - |
| 1777571056 | 21.67° C | 51% | 1012.3 hPa | 0 mm | - | 702 W/m² | - |
| 1777570753 | 21.67° C | 55% | 1012.4 hPa | 0 mm | - | 144 W/m² | - |
| 1777570449 | 22.78° C | 53% | 1012.3 hPa | 0 mm | - | 140 W/m² | - |
| 1777570145 | 23.33° C | 53% | 1012.4 hPa | 0 mm | - | 209 W/m² | - |
| 1777569841 | 23.89° C | 52% | 1012.4 hPa | 0 mm | - | 187 W/m² | - |
| 1777569537 | 22.78° C | 51% | 1012.3 hPa | 0 mm | - | 812 W/m² | - |
| 1777569233 | 22.22° C | 56% | 1012.4 hPa | 0 mm | - | 725 W/m² | - |
| 1777568930 | 22.22° C | 54% | 1012.3 hPa | 0 mm | - | 179 W/m² | - |
| 1777568627 | 22.22° C | 54% | 1012.5 hPa | 0 mm | - | 765 W/m² | - |
| 1777568324 | 22.78° C | 55% | 1012.6 hPa | 0 mm | - | 791 W/m² | - |
| 1777568020 | 22.22° C | 54% | 1012.6 hPa | 0 mm | - | 267 W/m² | - |
* Rain latest hour (hover to see other rain measurements)
** Current wind speed in m/s (hover to see current wind gust speed)